Regional Weather Roundup
Issued by NWS

Home | Current Version | Previous Version | Graphics & Text | Print | Product List | Glossary On
Versions: 1 2 3 4 5 6 7 8 9 10 11 12 13 14 15 16 17 18 19 20 21 22 23 24 25 26 27 28 29 30 31 32 33 34 35 36 37 38 39 40 41 42 43 44 45 46 47 48
000
ASUS45 KBOI 120310
RWRID
WEATHER ROUNDUP FOR IDAHO
NATIONAL WEATHER SERVICE BOISE ID
900 PM MDT FRI JUL 11 2014

NOTE: "FAIR" INDICATES FEW OR NO CLOUDS BELOW 12000 FEET
WITH NO SIGNIFICANT WEATHER AND/OR OBSTRUCTIONS TO VISIBILITY

IDZ012-014-120400-
SOUTHWEST IDAHO


CITY           SKY/WX    TMP DP  RH WIND       PRES   REMARKS
BOISE          CLOUDY    91  42  18 NW8       29.92R
CALDWELL       CLOUDY    90  45  20 W13       29.93R
MOUNTAIN HOME  CLOUDY    93  36  13 NW10      29.92R
$$

IDZ016-017-120400-
SOUTHCENTRAL IDAHO


CITY           SKY/WX    TMP DP  RH WIND       PRES   REMARKS
BURLEY         MOCLDY    75  50  41 SW16      30.01R
JEROME         MOCLDY    79  54  41 S6        30.01R
TWIN FALLS     CLOUDY    83  48  29 S12       30.01R
$$

IDZ019>023-120400-
SOUTHEAST IDAHO


CITY           SKY/WX    TMP DP  RH WIND       PRES   REMARKS
IDAHO FALLS    CLOUDY    72  54  53 N3        30.11R
POCATELLO      MOCLDY    75  47  36 S14       30.07R
REXBURG        CLOUDY    75  49  39 VRB3      30.11R
$$

IDZ006-010-011-018-031-032-120400-
CENTRAL IDAHO MOUNTAINS


CITY           SKY/WX    TMP DP  RH WIND       PRES   REMARKS
MCCALL         MOCLDY    79  36  21 NW6       30.09
HAILEY         MOCLDY    79  48  34 S7        30.08R
STANLEY          N/A     74  38  27 NW3       30.18R
SALMON         MOCLDY    84  43  23 N8G18     29.97R
CHALLIS        CLOUDY    82  42  24 N3        30.04R
$$

IDZ002-004-006-007-026-120400-
NORTHERN IDAHO


CITY           SKY/WX    TMP DP  RH WIND       PRES   REMARKS
LEWISTON       PTCLDY    94  38  14 NE7       29.90R
LOWELL           N/A     73  56  54 N3        29.92R
COEUR D`ALENE  PTCLDY    82  52  34 N5        29.97R
MULLAN PASS    PTCLDY    68  39  34 NW6       30.23R
$$



USA.gov is the U.S. government's official web portal to all federal, state and local government web resources and services.